Home   Weather   Barrie   Past weeks

Flag for Canada Past Weather in Barrie, Ontario, Canada — Yesterday and Last 2 Weeks

Now
41 °F

Clear.


Feels Like: 41 °F
Forecast: 37 / 42 °F
Wind: No wind

Location: Borden

Current Time: Apr 29, 2017 at 11:21:32 pm

Latest Report: Apr 29, 2017 at 10:00 pm


Visibility: 9 mi

Pressure: 30.30 "Hg

Humidity: 70%

Dew Point: 32 °F

Location of BarrieLocation

Past Weather in Barrie — Graph

°F

Barrie Temperature Yesterday

Maximum temperature yesterday: 66 °F (at 4:00 pm)
Minimum temperature yesterday: 45 °F (at 6:00 am)
Average temperature yesterday: 55 °F

High & Low Weather Summary for the Past Weeks

 TemperatureHumidityPressure
High81 °F (Apr 27, 3:00 pm)100% (Apr 15, 11:33 am)30.46 "Hg (Apr 15, 11:33 am)
Low19 °F (Apr 18, 6:00 am)26% (Apr 23, 2:00 pm)29.47 "Hg (Apr 27, 5:00 pm)
Average48 °F78%29.98 "Hg
* Reported Apr 14 10:00 pm — Apr 29 10:00 pm, Barrie, Weather by CustomWeather, © 2017

Note: Actual official high and low records may vary slightly from our data, if they occured in-between our weather recording intervals... More about our weather records

Advertising

Barrie Weather History for the Previous 24 Hours

Scroll right to see more
 ConditionsComfort  
Time TempWeatherWind HumidityBarometerVisibility
10:00 pm
Sat, Apr 29
41 °FClear.No wind70%30.30 "Hg9 mi
9:00 pm43 °FClear.5 mph57%30.25 "Hg9 mi
8:00 pm45 °FPassing clouds.7 mph49%30.24 "Hg9 mi
7:00 pm45 °FPassing clouds.8 mph49%30.24 "Hg9 mi
6:00 pm45 °FPassing clouds.15 mph49%30.23 "Hg9 mi
5:00 pm46 °FPassing clouds.9 mph50%30.22 "Hg9 mi
4:00 pm46 °FPassing clouds.12 mph50%30.22 "Hg9 mi
3:00 pm46 °FSunny.13 mph53%30.22 "Hg9 mi
2:00 pm46 °FPassing clouds.14 mph53%30.21 "Hg9 mi
1:00 pm45 °FPassing clouds.13 mph57%30.16 "Hg9 mi
12:00 pm45 °FPassing clouds.18 mph57%30.16 "Hg9 mi
11:00 am45 °FPassing clouds.18 mph61%30.15 "Hg9 mi
10:00 am45 °FOvercast.13 mph57%30.14 "Hg9 mi
9:00 am43 °FPartly sunny.10 mph61%30.13 "Hg9 mi
8:00 am43 °FPartly sunny.12 mph61%30.10 "Hg9 mi
7:00 am41 °FOvercast.7 mph66%30.07 "Hg9 mi
6:00 am41 °FOvercast.8 mph70%30.06 "Hg9 mi
5:00 am39 °FClear.7 mph75%30.05 "Hg9 mi
4:26 am39 °FPassing clouds.7 mph81%30.03 "Hg9 mi
3:00 am41 °FOvercast.13 mph76%29.99 "Hg9 mi
2:00 am45 °FOvercast.10 mph76%30.01 "Hg9 mi
1:00 am54 °FPassing clouds.10 mph67%29.96 "Hg9 mi
12:00 am55 °FPassing clouds.8 mph67%29.95 "Hg9 mi
11:00 pm
Fri, Apr 28
57 °FClear.7 mph59%29.94 "Hg9 mi
Weather by CustomWeather, © 2017

See weather overviewHow to use our weather pages